Regional Weather Roundup
Issued by NWS Pendleton, OR

Home | Current Version | Previous Version | Text Only | Print | Product List | Glossary On
Versions: 1 2 3 4 5 6 7 8 9 10 11 12 13 14 15 16 17 18 19 20 21 22 23 24 25 26 27 28 29 30 31 32 33 34 35 36 37 38 39 40 41 42 43 44 45 46 47 48 49 50
000
ASUS46 KPDT 130725
RWRPDT
PENDLETON REGIONAL WEATHER ROUNDUP
NATIONAL WEATHER SERVICE PENDLETON OREGON
1200 AM PDT SUN JUL 13 2014

NOTE: FAIR INDICATES FEW OR NO CLOUDS BELOW 12,000 FEET WITH NO
SIGNIFICANT WEATHER AND/OR OBSTRUCTIONS TO VISIBILITY.

# INDICATES UNOFFICIAL STATION AND DATA

WAZ520-130810-
EAST SLOPES OF WASHINGTON CASCADES

CITY            SKY/WX      TMP DP  RH  WIND    PRES   REMARKS
#CLE ELUM HS    N/A         70  54  57  CALM    30.06R
#CLE ELUM LAKE  N/A         74  52  46  CALM    29.97R
#CLIFFDEL 2NW   N/A         70  51  51  N1      N/A
#GLENWOOD       N/A         63  56  78  CALM    30.00R
#MANASTASH CYN  N/A         71  44  38  CALM    30.15R
#NELSON         N/A         69  56  63  CALM    30.02R
#NELSON 3SW     N/A         67  47  49  CALM    30.19R
#NILE           N/A         67  54  63  CALM    29.33R
#RONALD 2NW     N/A         71  53  53  CALM    30.05R
#TROUT LAKE 1NE N/A         69  56  63  NW3     29.99R
$$

WAZ521-130810-
SIMCOE HIGHLANDS

CITY            SKY/WX      TMP DP  RH  WIND    PRES   REMARKS
#BICKLETON HS   N/A         73  32  22  CALM    30.18S
#CENTERVILLE 4W N/A         78  55  45  N1      29.84R
#CENTERVILLE 1SWN/A         70  48  46  CALM    29.93S
#GOLDENDALE 1NE N/A         72  35  26  N3      N/A
#GOLDENDALE 1S  N/A         73  47  40  CALM    30.05R
#GOODNOE HILLS  N/A         84  42  23  NW3     29.97R
#LYLE 6NE       N/A         76  62  62  SE3     29.94S
$$

WAZ026-130810-
KITTITAS VALLEY

CITY            SKY/WX      TMP DP  RH  WIND    PRES   REMARKS
ELLENSBURG AP   CLEAR       78  54  43  NW6     30.09R
#ELLENSBURG CWU N/A         76  55  48  CALM    29.93S
#ELLENSBURG 3NE N/A         74  57  55  N1      30.09R
#ELLENSBURG 1E  N/A         69  54  59  CALM    N/A
#KITTITAS 3S    N/A         62  58  87  CALM    29.98R
#THORP 6N       N/A         72  51  48  N7      30.00R
$$

WAZ027-130810-
YAKIMA VALLEY

CITY            SKY/WX      TMP DP  RH  WIND    PRES   REMARKS
YAKIMA AIRPORT  CLEAR       74  51  44  W9      30.05R
#COWICHE 1N     N/A         80  52  38  NW3     30.23S
#DONALD 2NE     N/A         80  40  24  SW1     30.36R
#GRANDVIEW      N/A         74  48  40  CALM    29.98R
#MABTON         N/A         74  53  48  CALM    30.00R
#MOXEE 2E       N/A         75  36  24  E2      29.95R
#NACHES 2SW     N/A         81  54  39  W7      30.10R
#OUTLOOK DOT    N/A         N/A N/A N/A NW2     N/A
#SELAH 8E       N/A         73  36  26  SE6     N/A
#TERRACE HTS    N/A         74  51  44  CALM    29.94R
#TOPPENISH      N/A         76  59  56  NW2     29.89R
#WAPATO 4NE     N/A         81  41  24  CALM    30.36R
#WEST VALLEY    N/A         78  52  40  CALM    29.99R
#W YAKIMA       N/A         82  53  37  NW2     29.97R
#WHITE SWAN 5E  N/A         72  49  44  W2      29.98R
#WILEY CITY 3W  N/A         74  51  44  CALM    30.05R
$$

WAZ028-130810-
LOWER COLUMBIA BASIN...WASHINGTON

CITY            SKY/WX      TMP DP  RH  WIND    PRES   REMARKS
PASCO           CLEAR       71  61  71  N5      29.98R
PROSSER AWOS    N/A         66  55  68  S7      30.04R
RICHLAND AWOS   CLEAR       75  50  41  MISG    29.98R
#BASIN CITY 5SW N/A         72  55  55  CALM    30.00R
#BENTON CITY    N/A         75  48  38  CALM    29.86R
#CONNELL 5N     N/A         75  43  32  CALM    29.96R
#CONNELL 5NW    N/A         73  43  34  CALM    29.92R
#ELTOPIA 6NW    N/A         78  50  38  N3      28.98R
#KENNEWICK 3S   N/A         84  41  22  CALM    29.95R
#PATERSON       N/A         77  50  39  CALM    29.93R
#PROSSER        N/A         80  43  27  CALM    29.95R
#SAGEMOOR 2W    N/A         79  51  38  CALM    29.80R
#TOUCHET 2S     N/A         61  54  78  CALM    29.94R
#WEST PASCO     N/A         77  52  42  CALM    29.96R
$$

WAZ029-130810-
FOOTHILLS OF THE BLUES...WASHINGTON

CITY            SKY/WX      TMP DP  RH  WIND    PRES   REMARKS
WALLA WALLA AP  CLEAR       77  41  28  E9      30.03R
#COLLEGE PLACE  N/A         80  43  27  E2      29.99R
#DAYTON SCHOOL  N/A         70  40  34  N5      30.05R
#LOWDEN 2SE     N/A         69  54  59  CALM    29.95R
#PLEASANT VIEW 1N/A         83  36  19  CALM    29.98R
#PRESCOTT       N/A         73  45  37  E3      29.93R
#SUDBURY        N/A         69  N/A N/A CALM    N/A
#WHITMAN COLLEGEN/A         79  47  32  E3      29.99R
#WAITSBURG 8N   N/A         74  28  18  CALM    29.88S
#WALLA WALLA 5E N/A         71  41  34  VRB1    N/A
#WHITMAN MISSIONN/A         69  54  59  CALM    29.96R
$$

WAZ030-130810-
BLUE MOUNTAINS...WASHINGTON

CITY            SKY/WX      TMP DP  RH  WIND    PRES   REMARKS
$$

ORZ009-041-WAZ024-130810-
COLUMBIA RIVER GORGE

CITY            SKY/WX      TMP DP  RH  WIND    PRES   REMARKS
HOOD RIVER AP   CLEAR       73  61  66  CALM    30.04R
THE DALLES AP   CLEAR       83  61  48  NW15    29.99R
#ARLINGTON AIRPON/A         86  40  20  NW3     N/A
#ARLINGTON HS   N/A         77  41  28  SE5     29.87R
#CELILO DOT     N/A         84  59  43  CALM    N/A
#MOSIER 1S      N/A         77  52  42  CALM    30.09S
#MURDOCK        N/A         85  63  48  NW17    29.98R
#RUFUS DOT      N/A         83  53  36  NE5     N/A

$$

ORZ510-130810-
NORTH CENTRAL OREGON

CITY            SKY/WX      TMP DP  RH  WIND    PRES   REMARKS
#CHENOWITH 1W   N/A         77  59  54  W15     N/A
#COW CYN RST AREN/A         79  78  97  NE5     N/A
#GRASS VALLEY 1SN/A         78  41  27  CALM    29.96S
#KENT DOT       N/A         78  37  23  NE7     N/A
#MAUPIN SCHOOL  N/A         81  50  34  W2      30.05R
#MORO SCHOOL    N/A         74  59  59  SW1     30.08S
#SHANIKO 5WSW   N/A         78  37  23  NE13    N/A
#SHANIKO 4NW    N/A         77  30  18  E10     30.19S
#TYGH VALLEY 2NEN/A         79  48  34  CALM    29.96R
#WAPANITIA AIRPON/A         75  55  50  W2      29.97R
#WASCO DOT      N/A         68  47  47  E3      N/A
#WASCO 5NE      N/A         75  52  45  CALM    29.95S
$$

ORZ511-130810-
CENTRAL OREGON

CITY            SKY/WX      TMP DP  RH  WIND    PRES   REMARKS
BEND AIRPORT    PTCLDY      73  54  51  NW8     30.19R
MADRAS AIRPORT  CLEAR       72  50  46  N5      30.13S
REDMOND AIRPORT CLEAR       76  41  28  NW8     30.15R
#BEND 6E        N/A         74  51  44  CALM    29.84R
#BEND 1SW       N/A         74  47  38  CALM    N/A
#BEND-AWBREY    N/A         77  50  39  S3      29.97R
#BEND-KIM LN    N/A         75  53  46  NW2     30.16R
#CULVER         N/A         71  52  51  CALM    30.10R
#LAKE BILLY CHINN/A         80  10   7  SW1     30.15R
#POWELL BUTTE   N/A         71  38  30  SW1     29.81R
#PRINEVILLE 3N  N/A         72  45  38  CALM    29.92R


ORZ509-130810-
EAST SLOPES OF OREGON CASCADES

CITY            SKY/WX      TMP DP  RH  WIND    PRES   REMARKS
#BLUE BOX PASS  N/A         66  11  11  CALM    N/A
#BLACK BUTTE RNCN/A         65  57  75  CALM    29.98S
#CAMP SHERMAN   N/A         63  55  75  CALM    29.99R
#LA PINE DOT    N/A         63  51  65  CALM    N/A
#LA PINE 4NW    N/A         61  52  72  CALM    30.04R
#LAVA BUTTE DOT N/A         70  48  46  NE1     N/A
#SISTERS AIRPOR N/A         70  62  76  N1      30.16S
#SISTERS ODOT   N/A         67  N/A N/A CALM    N/A
#SISTERS 3N     N/A         65  32  29  CALM    30.16S
#SUNRIVER       N/A         63  54  72  CALM    29.88R
#SUNRIVER AP    N/A         60  53  78  CALM    29.96R
#SUTTLE LK DOT  N/A         65  56  73  W6      N/A
#TUMALO 3W      N/A         77  49  37  NW7     29.85R
#WANOGA BUTTE D N/A         67  39  36  NE7     N/A

$$

ORZ044-130810-
LOWER COLUMBIA BASIN...OREGON

CITY            SKY/WX      TMP DP  RH  WIND    PRES   REMARKS
HERMISTON       CLEAR       74  44  34  S8      29.98R
#BOARDMAN 3W    N/A         67  58  73  SW3     29.68S
#BOARDMAN 8SW   N/A         77  50  39  N3      29.94S
#IONE SCHOOL    N/A         73  37  27  CALM    30.01S
#IRRIGON 4NW    N/A         68  60  76  S3      N/A
#UMATILLA SCHOOLN/A         73  63  71  CALM    30.03R
#UMATILLA       N/A         77  49  37  CALM    29.94R
$$

ORZ507-130810-
NORTHERN FOOTHILLS OF THE BLUES

CITY            SKY/WX      TMP DP  RH  WIND    PRES   REMARKS
PENDLETON AIRPT CLEAR       75  40  28  SE7     30.04S
#ADAMS 3WNW     N/A         65  37  35  CALM    29.95R
#ATHENA         N/A         65  44  46  CALM    29.98R
#HELIX SCHOOL   N/A         69  40  35  CALM    29.96R
#HELIX 3N       N/A         75  39  27  CALM    30.03S
#HELIX 6SW      N/A         71  40  32  CALM    30.04R
#M-FREEWATER 5SEN/A         77  46  33  NE7     30.03R
#PDT AQUATIC CTRN/A         76  43  31  CALM    30.03S
#PDT SUNRIDGE   N/A         72  46  39  CALM    30.04R
#PENDLETON 7NW  N/A         73  46  38  E1      N/A
#PILOT ROCK     N/A         77  42  29  SE7     30.08S
#TUTUILLA       N/A         68  48  49  CALM    29.91S
#UMAPINE 2E     N/A         72  51  48  SE3     29.96R
#WESTON SCHOOL  N/A         76  40  27  CALM    30.05R

$$

ORZ508-130810-
SOUTHERN FOOTHILLS OF THE BLUES

CITY            SKY/WX      TMP DP  RH  WIND    PRES   REMARKS
#AJAX           N/A         N/A N/A N/A NE1     30.12R
#CONDON SCHOOL  N/A         77  34  21  CALM    30.09S
#CONDON 5W      N/A         79  29  16  E7      30.14S
#FOSSIL SCHOOL  N/A         70  34  26  CALM    30.09S
#HEPPNER EOC    N/A         78  38  24  SE5     29.91S
#HEPPNER 4NE    N/A         74  40  29  E5      29.95S
#LEXINGTON 2SE  N/A         71  42  35  CALM    30.03S
#MIKKALO        N/A         74  32  21  SE5     30.07F
#OLEX 4N        N/A         80  35  20  CALM    30.00S
#RUGGS 5NE      N/A         75  32  21  E1      30.30S
#RUGGS 2SW      N/A         75  35  23  SW7     30.00S

$$

ORZ502-503-130810-
BLUE MOUNTAINS

CITY            SKY/WX      TMP DP  RH  WIND    PRES   REMARKS
MEACHAM         CLEAR       56  49  77  CALM    30.22S
#BATTLE MTN DOT N/A         68  50  53  CALM    N/A
#HARDMAN 10S    N/A         68  36  31  CALM    30.26F
#HEPPNER 15SE   N/A         64  43  46  E2      30.16S
#LADD CYN SMT   N/A         62  40  44  NE7     N/A
#LADD CREEK ODOTN/A         65  46  50  S3      N/A
#N POWDER DOT   N/A         66  50  56  NW6     N/A
#TOLLGATE       N/A         63  36  36  CALM    30.19S
#TROY SCHOOL    N/A         67  50  54  CALM    29.87R
#UKIAH          N/A         58  45  62  CALM    30.06R
#WESTON 4E      N/A         74  39  28  E5      29.91R
$$

ORZ505-130810-
JOHN DAY BASIN

CITY            SKY/WX      TMP DP  RH  WIND    PRES   REMARKS
JOHN DAY        MOCLDY      75  41  29  E3      30.20R
#JOHN DAY KJDY  N/A         71  50  47  CALM    30.06R
#MONUMENT HS    N/A         70  43  38  CALM    29.85R
#MT. VERNON 5SE N/A         72  41  33  CALM    30.17R
#WINLOCK        N/A         72  36  27  CALM    30.23R
$$

ORZ506-130810-
OCHOCO AND JOHN DAY HIGHLANDS

CITY            SKY/WX      TMP DP  RH  WIND    PRES   REMARKS
#BUCK CREEK DOT N/A         73  49  43  CALM    N/A
#HORSE RIDGE DO N/A         66  47  50  E2      N/A
#KEYES SMT DOT  N/A         73  32  22  SW1     N/A
#PAULINA SCHOOL N/A         71  N/A N/A CALM    30.17R
#PINE MTN OBS   N/A         65  49  56  NW3     N/A
#PRAIRIE CITY   N/A         60  46  60  CALM    30.14R
#SENECA 9NW     N/A         65  41  41  CALM    29.98R
$$

ORZ049-130810-
GRANDE RONDE VALLEY

CITY            SKY/WX      TMP DP  RH  WIND    PRES   REMARKS
LA GRANDE       CLEAR       72  41  33  NW8     30.13S
#COVE           N/A         65  50  58  E1      30.05R
#COVE SCHOOL    N/A         65  47  52  CALM    30.11R
#COVE 6NW       N/A         62  48  60  CALM    30.01S
#ELGIN 3N       N/A         63  41  44  NE2     29.87R
#ELGIN 1E       N/A         63  46  54  E1      N/A
#ISLAND CITY 4N N/A         64  45  50  N3      29.93R
#LADD CYN DOT   N/A         70  42  36  SE16    N/A
#UNION 1S       N/A         65  50  58  CALM    29.88S
$$

ORZ050-130810-
WALLOWA COUNTY

CITY            SKY/WX      TMP DP  RH  WIND    PRES   REMARKS
JOSEPH AIRPORT  CLEAR       66  43  43  S8      30.26R
#ENTERPRISE HS  N/A         62  49  62  CALM    30.20R
#IMNAHA SCHOOL  N/A         77  41  28  CALM    30.06R
#IMNAHA 10S     N/A         72  44  37  SW5     30.14R
#JOSEPH 3N      N/A         56  47  72  CALM    30.23S
#LOSTINE        N/A         69  45  42  SE2     29.80R
#MT HOWARD 8000 N/A         61  35  38  CALM    30.55R
#PROMISE 1S     N/A         66  42  42  E1      30.09S
#SHEEP RDG 7000 N/A         66  35  32  CALM    29.99F
#WALLOWA SCHOOL N/A         62  50  65  CALM    30.87R



$$



USA.gov is the U.S. government's official web portal to all federal, state and local government web resources and services.